Simultaneous Nadir Overpasses (SNOs) Predictions

Prediction of SNOs between AURA and NPP Satellite Orbit:

Table of predicted SNOs for the next 14.0 days since TLE Epoch: 1/24/2025
Index Date (AURA) Time (AURA) Lat,Lon (AURA) SZA (AURA ) Date (NPP) Time (NPP) Lat,Lon (NPP) SZA (NPP ) Distance(km) Time Diff (sec)
1 01/26/2025 23:47:47 80.98, 98.98 107.78 01/26/2025 23:46:50 80.97, 98.94 107.82 0.95 57
2 01/27/2025 00:37:07 -81.01, -92.87 72.31 01/27/2025 00:37:33 -81.01, -92.80 72.33 1.15 26
3 01/29/2025 11:50:16 -80.98, 98.44 72.87 01/29/2025 11:50:01 -80.98, 98.33 72.85 1.87 15
4 01/29/2025 12:39:35 81.01, -93.38 107.05 01/29/2025 12:40:43 81.01, -93.51 107.02 2.27 68
5 01/31/2025 23:03:22 -80.98, -69.85 73.53 01/31/2025 23:02:27 -80.97, -69.89 73.49 0.80 55
6 01/31/2025 23:52:41 81.01, 98.30 106.39 01/31/2025 23:53:09 81.01, 98.27 106.38 0.60 28
7 02/03/2025 11:05:45 80.98, -70.31 105.75 02/03/2025 11:05:35 80.98, -70.40 105.77 1.48 10
8 02/03/2025 11:55:05 -81.02, 97.89 74.35 02/03/2025 11:56:18 -81.02, 97.87 74.39 0.57 73
9 02/05/2025 22:18:47 80.98, 121.48 105.01 02/05/2025 22:18:00 80.99, 121.59 105.02 1.88 47



Historial Predications of SNOs between AURA and NPP
